N3AVN Weather Reports


time (UTC)temp
C
wind
direction
speed
KPH
gust
KPH
rain 1hr
cm
rain 24hr
cm
rain mn
cm
humidity
%
barometer
mb
20260510213321 19 180 1.6 4.8 0.00 0.00 0.00 65 1010.9
20260510212818 19 180 0.0 4.8 0.00 0.00 0.00 65 1010.9
20260510212315 18 188 0.0 4.8 0.00 0.00 0.00 64 1010.9
20260510211812 19 352 0.0 8.0 0.00 0.00 0.00 64 1010.7
20260510211307 20 174 1.6 8.0 0.00 0.00 0.00 63 1010.5
20260510210803 20 321 0.0 4.8 0.00 0.00 0.00 62 1010.5
20260510210259 19 231 3.2 9.7 0.00 0.00 0.00 61 1010.5
20260510205758 19 251 9.7 16.1 0.00 0.00 0.00 64 1010.9
20260510205254 20 241 8.0 12.9 0.00 0.00 0.00 59 1010.9
20260510204750 20 236 4.8 11.3 0.00 0.00 0.00 60 1010.5
20260510204246 20 216 4.8 12.9 0.00 0.00 0.00 57 1010.5
20260510203743 20 274 4.8 11.3 0.00 0.00 0.00 58 1010.5
20260510203241 20 242 6.4 16.1 0.00 0.00 0.00 57 1010.5
20260510202741 20 230 6.4 25.7 0.00 0.00 0.00 60 1010.3
20260510202236 20 334 6.4 12.9 0.00 0.00 0.00 65 1010.2
20260510201734 20 85 0.0 9.7 0.00 0.00 0.00 71 1010.1
20260510201230 21 145 1.6 8.0 0.00 0.00 0.00 70 1009.9
20260510200727 21 140 3.2 11.3 0.00 0.00 0.00 66 1009.9
20260510200225 21 225 3.2 8.0 0.00 0.00 0.00 64 1009.7
20260510195721 21 270 0.0 9.7 0.00 0.00 0.00 65 1009.6
20260510195218 21 9 0.0 11.3 0.00 0.00 0.00 64 1009.6
20260510194717 22 109 1.6 9.7 0.00 0.00 0.00 67 1009.9
20260510194214 22 241 12.9 14.5 0.00 0.00 0.00 66 1009.8
20260510193709 22 279 0.0 9.7 0.00 0.00 0.00 65 1009.9
20260510193204 22 180 3.2 6.4 0.00 0.00 0.00 67 1009.9
20260510192700 22 75 3.2 12.9 0.00 0.00 0.00 66 1009.9
20260510192156 21 78 11.3 11.3 0.00 0.00 0.00 68 1010.0
20260510191652 21 98 0.0 4.8 0.00 0.00 0.00 69 1010.0
20260510191149 21 100 11.3 12.9 0.00 0.00 0.00 69 1010.2
20260510190646 21 244 4.8 12.9 0.00 0.00 0.00 69 1010.0
20260510190143 20 226 8.0 16.1 0.00 0.00 0.00 69 1010.2
20260510185640 20 77 3.2 12.9 0.00 0.00 0.00 70 1010.2
20260510185138 21 97 6.4 9.7 0.00 0.00 0.00 70 1010.4
20260510184635 21 188 0.0 19.3 0.00 0.00 0.00 69 1010.2
20260510184131 21 51 9.7 11.3 0.00 0.00 0.00 68 1010.2
20260510183626 21 116 4.8 17.7 0.00 0.00 0.00 68 1010.2
20260510183121 21 180 3.2 11.3 0.00 0.00 0.00 68 1010.4
20260510182619 21 254 6.4 14.5 0.00 0.00 0.00 68 1010.0
20260510182114 21 45 6.4 12.9 0.00 0.00 0.00 69 1009.8
20260510181611 20 125 0.0 14.5 0.00 0.00 0.00 70 1010.1
20260510181107 20 208 8.0 12.9 0.00 0.00 0.00 71 1009.9
20260510180604 21 282 0.0 9.7 0.00 0.00 0.00 68 1010.3
20260510175557 21 135 4.8 12.9 0.00 0.00 0.00 68 1010.3
20260510175053 21 163 3.2 16.1 0.00 0.00 0.00 68 1010.1
20260510174552 22 86 3.2 4.8 0.00 0.00 0.00 67 1010.1
20260510174048 21 144 9.7 12.9 0.00 0.00 0.00 68 1010.3
20260510173543 22 225 8.0 11.3 0.00 0.00 0.00 66 1010.3
20260510173041 21 348 1.6 11.3 0.00 0.00 0.00 69 1010.5
20260510172536 21 192 3.2 11.3 0.00 0.00 0.00 67 1010.5
20260510172033 21 143 3.2 14.5 0.00 0.00 0.00 66 1010.3
20260510171530 20 119 8.0 14.5 0.00 0.00 0.00 70 1010.4
20260510171026 21 244 9.7 14.5 0.00 0.00 0.00 71 1010.5
20260510170517 20 104 8.0 8.0 0.00 0.00 0.00 72 1010.6
20260510170014 20 77 9.7 9.7 0.00 0.00 0.00 73 1010.5
20260510165509 20 221 8.0 12.9 0.00 0.00 0.00 73 1010.8
20260510165006 20 99 8.0 14.5 0.00 0.00 0.00 74 1010.6
20260510164503 20 237 4.8 9.7 0.00 0.00 0.00 76 1010.7
20260510163959 19 96 4.8 4.8 0.00 0.00 0.00 77 1010.8
20260510163455 18 117 1.6 4.8 0.00 0.00 0.00 78 1010.8
20260510162950 18 166 1.6 8.0 0.00 0.00 0.00 78 1010.9
20260510162446 18 150 4.8 12.9 0.00 0.00 0.00 78 1011.1
20260510161942 18 210 3.2 4.8 0.00 0.00 0.00 77 1011.2
20260510161437 18 84 4.8 14.5 0.00 0.00 0.00 76 1011.0
20260510160936 19 32 3.2 9.7 0.00 0.00 0.00 75 1011.0
20260510160432 18 196 3.2 4.8 0.00 0.00 0.00 77 1011.1
20260510155925 18 134 9.7 9.7 0.00 0.00 0.00 78 1011.2
20260510155422 19 180 8.0 11.3 0.00 0.00 0.00 76 1011.3
20260510154919 18 34 4.8 6.4 0.00 0.00 0.00 77 1011.1
20260510154415 18 165 9.7 9.7 0.00 0.00 0.00 77 1011.2
20260510153908 18 152 3.2 14.5 0.00 0.00 0.00 77 1011.4
20260510153405 18 120 4.8 9.7 0.00 0.00 0.00 78 1011.4
20260510152901 18 213 3.2 6.4 0.00 0.00 0.00 76 1011.6
20260510152359 18 246 9.7 14.5 0.00 0.00 0.00 76 1011.6
20260510151855 17 243 4.8 9.7 0.00 0.00 0.00 77 1011.8
20260510151353 17 109 11.3 11.3 0.00 0.00 0.00 77 1011.6
20260510150849 17 184 3.2 11.3 0.00 0.00 0.00 78 1011.7
20260510150345 17 219 6.4 14.5 0.00 0.00 0.00 77 1011.5
20260510145841 17 114 4.8 6.4 0.00 0.00 0.00 80 1011.4
20260510145337 17 135 4.8 11.3 0.00 0.00 0.00 79 1011.3
20260510144834 17 191 0.0 9.7 0.00 0.00 0.00 79 1011.4
20260510144331 17 208 3.2 4.8 0.00 0.00 0.00 81 1011.4
20260510143831 16 337 6.4 11.3 0.00 0.00 0.00 81 1011.3
20260510143327 17 145 8.0 9.7 0.00 0.00 0.00 80 1011.6
20260510142824 17 148 3.2 6.4 0.00 0.00 0.00 80 1011.5
20260510142321 15 148 3.2 9.7 0.00 0.00 0.00 83 1011.7
20260510141818 15 94 0.0 8.0 0.00 0.00 0.00 83 1011.6
20260510141315 15 213 3.2 3.2 0.00 0.00 0.00 88 1011.6
20260510140813 15 212 4.8 6.4 0.00 0.00 0.00 86 1011.6
20260510140308 15 180 0.0 4.8 0.00 0.00 0.00 85 1011.5
20260510135801 15 203 0.0 3.2 0.00 0.00 0.00 86 1011.7
20260510135257 14 140 0.0 12.9 0.00 0.00 0.00 88 1011.6
20260510134755 15 270 0.0 3.2 0.00 0.00 0.00 88 1011.6
20260510134252 13 320 3.2 4.8 0.00 0.00 0.00 90 1011.6
20260510133743 13 59 6.4 6.4 0.00 0.00 0.00 91 1011.4
20260510133238 13 220 0.0 3.2 0.00 0.00 0.00 92 1011.6
20260510132734 13 180 0.0 3.2 0.00 0.00 0.00 92 1011.5
20260510132232 12 110 6.4 6.4 0.00 0.00 0.00 93 1011.6
20260510131729 12 210 3.2 4.8 0.00 0.00 0.00 93 1011.8
20260510131228 12 340 1.6 3.2 0.00 0.00 0.00 94 1011.6
20260510130723 12 114 0.0 4.8 0.00 0.00 0.00 94 1011.4
20260510130220 12 128 3.2 6.4 0.00 0.00 0.00 94 1011.5
20260510125717 12 106 0.0 4.8 0.00 0.00 0.00 94 1011.6
20260510125213 12 71 0.0 3.2 0.00 0.00 0.00 95 1011.3
20260510124709 12 115 0.0 3.2 0.00 0.00 0.00 95 1011.5
20260510124207 12 232 3.2 3.2 0.00 0.00 0.00 97 1011.5
20260510123702 12 105 0.0 3.2 0.00 0.00 0.00 98 1011.3
20260510123158 12 7 0.0 3.2 0.00 0.00 0.00 99 1011.5
20260510122654 11 188 0.0 3.2 0.00 0.00 0.00 99 1011.6
20260510122151 11 248 0.0 4.8 0.00 0.00 0.00 99 1011.4
20260510121648 11 300 3.2 4.8 0.00 0.00 0.00 99 1011.7
20260510121145 11 352 3.2 4.8 0.00 0.00 0.00 99 1011.6
20260510120642 11 228 0.0 6.4 0.00 0.00 0.00 99 1011.5
20260510120138 11 239 0.0 3.2 0.00 0.00 0.00 99 1011.7
20260510115634 11 180 0.0 0.0 0.00 0.00 0.00 99 1011.5
20260510115133 11 99 0.0 3.2 0.00 0.00 0.00 99 1011.6
20260510114628 11 157 1.6 3.2 0.00 0.00 0.00 99 1011.6
20260510114124 11 109 0.0 1.6 0.00 0.00 0.00 99 1011.5
20260510113620 11 145 1.6 3.2 0.00 0.00 0.00 99 1011.5
20260510113117 11 90 0.0 1.6 0.00 0.00 0.00 99 1011.5
20260510112614 11 103 0.0 1.6 0.00 0.00 0.00 99 1011.1
20260510112110 11 90 0.0 4.8 0.00 0.00 0.00 99 1011.1
20260510111607 11 0 0.0 0.0 0.00 0.00 0.00 99 1011.3
20260510111102 11 106 0.0 0.0 0.00 0.00 0.00 99 1011.1
20260510110559 11 154 0.0 3.2 0.00 0.00 0.00 99 1011.1
20260510110055 10 66 0.0 0.0 0.00 0.00 0.00 99 1011.2
20260510105550 10 103 0.0 0.0 0.00 0.00 0.00 99 1011.2
20260510105046 10 99 0.0 0.0 0.00 0.00 0.00 99 1010.9
20260510104543 10 90 0.0 0.0 0.00 0.00 0.00 99 1011.1
20260510104039 10 90 0.0 0.0 0.00 0.00 0.00 99 1010.9
20260510103536 10 114 0.0 3.2 0.00 0.00 0.00 99 1010.8
20260510103032 10 74 0.0 0.0 0.00 0.00 0.00 99 1010.8
20260510102527 10 74 0.0 0.0 0.00 0.00 0.00 99 1010.9
20260510102024 10 106 0.0 3.2 0.00 0.00 0.00 99 1010.8
20260510101521 10 151 0.0 1.6 0.00 0.00 0.00 99 1010.9
20260510101020 10 263 0.0 1.6 0.00 0.00 0.00 99 1010.9
20260510100516 10 109 0.0 0.0 0.00 0.00 0.00 99 1010.4
20260510100013 10 216 0.0 3.2 0.00 0.00 0.00 99 1010.3
20260510095508 10 354 0.0 3.2 0.00 0.00 0.00 99 1010.3
20260510095008 10 95 6.4 8.0 0.00 0.00 0.00 99 1010.4
20260510094502 10 71 0.0 4.8 0.00 0.00 0.00 99 1010.8
20260510093958 10 0 0.0 3.2 0.00 0.00 0.00 99 1010.6
20260510093454 10 114 1.6 3.2 0.00 0.00 0.00 99 1010.6
20260510092951 10 165 0.0 3.2 0.00 0.00 0.00 99 1010.6
20260510092448 10 132 3.2 3.2 0.00 0.00 0.00 99 1010.6
20260510091948 10 287 3.2 3.2 0.00 0.00 0.00 99 1010.7
20260510091445 10 120 0.0 4.8 0.00 0.00 0.00 99 1010.3
20260510090942 10 107 4.8 4.8 0.00 0.00 0.00 99 1010.4
20260510090439 10 200 1.6 3.2 0.00 0.00 0.00 99 1010.7
20260510085934 10 248 3.2 3.2 0.00 0.00 0.00 99 1010.6
20260510085429 10 124 0.0 3.2 0.00 0.00 0.00 99 1010.8
20260510084925 10 155 4.8 4.8 0.00 0.00 0.00 99 1010.9
20260510084423 10 135 0.0 3.2 0.00 0.00 0.00 99 1011.0
20260510083919 10 225 0.0 0.0 0.00 0.00 0.00 99 1010.8
20260510083415 10 225 0.0 0.0 0.00 0.00 0.00 99 1010.7
20260510082911 10 103 0.0 3.2 0.00 0.00 0.00 99 1010.6
20260510082409 10 240 0.0 0.0 0.00 0.00 0.00 99 1010.6
20260510081907 11 145 0.0 1.6 0.00 0.00 0.00 99 1010.5
20260510081404 11 114 0.0 1.6 0.00 0.00 0.00 99 1010.6
20260510080901 11 60 0.0 0.0 0.00 0.00 0.00 99 1010.7
20260510080354 11 99 0.0 1.6 0.00 0.00 0.00 99 1010.7
20260510075852 11 90 0.0 1.6 0.00 0.00 0.00 99 1010.6
20260510075349 11 117 4.8 4.8 0.00 0.00 0.00 99 1010.5
20260510074845 11 78 0.0 3.2 0.00 0.00 0.00 99 1010.7
20260510074343 11 98 0.0 1.6 0.00 0.00 0.00 99 1010.4
20260510073839 11 105 0.0 3.2 0.00 0.00 0.00 99 1010.3
20260510073335 11 103 0.0 3.2 0.00 0.00 0.00 99 1010.4
20260510072831 11 97 0.0 3.2 0.00 0.00 0.00 99 1010.4
20260510072328 11 154 0.0 3.2 0.00 0.00 0.00 99 1010.3
20260510071824 11 165 0.0 1.6 0.00 0.00 0.00 99 1010.4
20260510071320 11 99 0.0 0.0 0.00 0.00 0.00 99 1010.4
20260510070820 11 107 0.0 0.0 0.00 0.00 0.00 99 1010.3
20260510070310 11 102 0.0 3.2 0.00 0.00 0.00 99 1010.3
20260510065810 11 120 0.0 3.2 0.00 0.00 0.00 99 1010.4
20260510065307 11 239 0.0 0.0 0.00 0.00 0.00 99 1010.5
20260510064804 11 239 0.0 0.0 0.00 0.00 0.00 99 1010.3
20260510064302 11 209 0.0 3.2 0.00 0.00 0.00 99 1010.5
20260510063757 11 106 0.0 1.6 0.00 0.00 0.00 99 1010.4
20260510063254 11 100 0.0 3.2 0.00 0.00 0.00 99 1010.1
20260510062750 11 90 0.0 0.0 0.00 0.00 0.00 99 1010.3
20260510062246 11 220 0.0 0.0 0.00 0.00 0.00 99 1010.2
20260510061742 11 220 0.0 3.2 0.00 0.00 0.00 99 1010.1
20260510061239 11 209 1.6 3.2 0.00 0.00 0.00 99 1009.8
20260510060735 11 45 0.0 3.2 0.00 0.00 0.00 99 1009.9
20260510060232 11 237 0.0 0.0 0.00 0.00 0.00 99 1009.8
20260510055729 11 172 0.0 3.2 0.00 0.00 0.00 99 1009.9
20260510055227 10 120 0.0 3.2 0.00 0.00 0.00 99 1010.0
20260510054721 10 180 0.0 0.0 0.00 0.00 0.00 99 1009.7
20260510054218 10 180 0.0 0.0 0.00 0.00 0.00 99 1010.2
20260510053712 11 180 0.0 1.6 0.00 0.00 0.00 99 1009.7
20260510053209 11 126 0.0 1.6 0.00 0.00 0.00 99 1009.9
20260510052704 11 120 0.0 0.0 0.00 0.00 0.00 99 1009.9
20260510052201 11 105 0.0 1.6 0.00 0.00 0.00 99 1010.2
20260510051656 11 99 0.0 0.0 0.00 0.00 0.00 99 1010.1
20260510051153 11 126 1.6 3.2 0.00 0.00 0.00 99 1009.8
20260510050650 11 127 3.2 3.2 0.00 0.00 0.00 99 1010.4
20260510050148 11 106 0.0 0.0 0.00 0.00 0.00 99 1010.5
20260510045644 11 98 0.0 3.2 0.00 0.00 0.00 99 1010.3
20260510045141 11 172 0.0 0.0 0.00 0.00 0.00 99 1010.6
20260510044637 11 90 0.0 0.0 0.00 0.00 0.00 99 1010.1
20260510044135 11 99 0.0 0.0 0.00 0.00 0.00 99 1010.1
20260510043630 11 82 0.0 1.6 0.00 0.00 0.00 99 1010.4
20260510043127 11 111 0.0 3.2 0.00 0.00 0.00 99 1010.0
20260510042624 11 151 1.6 1.6 0.00 0.00 0.00 99 1010.1
20260510042120 11 90 0.0 1.6 0.00 0.00 0.00 99 1009.9
20260510041618 11 119 3.2 3.2 0.00 0.00 0.00 99 1009.9
20260510041115 11 131 0.0 3.2 0.00 0.00 0.00 99 1010.0
20260510040612 11 123 0.0 3.2 0.00 0.00 0.00 99 1010.0
20260510040108 11 96 0.0 0.0 0.00 0.00 0.00 99 1010.1
20260510035604 11 123 0.0 1.6 0.00 1.73 1.73 99 1010.1
20260510035104 11 251 0.0 1.6 0.00 1.73 1.73 99 1010.1
20260510034602 11 228 3.2 4.8 0.00 1.73 1.73 99 1010.3
20260510034059 11 188 0.0 1.6 0.00 1.73 1.73 99 1010.1
20260510033555 11 165 0.0 0.0 0.00 1.73 1.73 99 1010.2
20260510033052 11 220 0.0 3.2 0.00 1.73 1.73 99 1010.1
20260510032549 11 103 0.0 3.2 0.00 1.73 1.73 99 1010.2
20260510032044 11 90 0.0 3.2 0.00 1.73 1.73 99 1010.0
20260510031539 11 270 0.0 0.0 0.00 1.73 1.73 99 1010.3
20260510031035 11 270 0.0 0.0 0.00 1.73 1.73 99 1010.2
20260510030531 11 234 0.0 3.2 0.00 1.73 1.73 99 1010.1
20260510030028 11 105 0.0 1.6 0.00 1.73 1.73 99 1009.9
20260510025526 11 90 0.0 0.0 0.00 1.73 1.73 99 1010.0
20260510025023 11 117 0.0 0.0 0.00 1.73 1.73 99 1010.1
20260510024520 11 117 0.0 0.0 0.00 1.73 1.73 99 1009.7
20260510024016 11 117 0.0 0.0 0.00 1.73 1.73 99 1009.9
20260510023512 11 117 0.0 0.0 0.00 1.73 1.73 99 1009.9
20260510023010 11 117 0.0 0.0 0.00 1.73 1.73 99 1009.7
20260510022509 11 117 0.0 0.0 0.00 1.73 1.73 99 1009.9
20260510022009 11 117 0.0 0.0 0.00 1.73 1.73 99 1009.9
20260510021506 11 117 0.0 1.6 0.00 1.73 1.73 99 1009.8
20260510021003 11 117 0.0 3.2 0.00 1.73 1.73 99 1010.1
20260510020457 11 90 0.0 1.6 0.00 1.73 1.73 99 1009.7
20260510015953 11 117 0.0 3.2 0.00 1.73 1.73 99 1010.1
20260510015449 11 106 0.0 1.6 0.00 1.73 1.73 99 1010.2
20260510014944 11 114 0.0 1.6 0.00 1.73 1.73 99 1010.2
20260510014441 11 106 0.0 0.0 0.00 1.73 1.73 99 1010.2
20260510013938 11 106 0.0 0.0 0.00 1.73 1.73 99 1010.3
20260510013433 11 106 0.0 0.0 0.00 1.73 1.73 99 1010.0
20260510012929 11 106 0.0 0.0 0.00 1.73 1.73 99 1010.0
20260510012424 11 114 1.6 3.2 0.00 1.73 1.73 99 1010.1
20260510011919 11 270 0.0 0.0 0.00 1.73 1.73 99 1010.0
20260510011414 11 173 0.0 0.0 0.00 1.73 1.73 99 1009.8
20260510010910 11 173 0.0 0.0 0.00 1.73 1.73 99 1009.7
20260510010408 11 220 0.0 3.2 0.00 1.73 1.73 99 1009.5
20260510005904 11 145 1.6 3.2 0.00 1.73 1.73 99 1009.5
20260510005401 11 90 0.0 0.0 0.00 1.73 1.73 99 1009.5
20260510004858 11 96 1.6 3.2 0.00 1.73 1.73 99 1009.6
20260510004355 11 114 0.0 0.0 0.00 1.73 1.73 99 1009.4
20260510003853 11 114 0.0 0.0 0.00 1.73 1.73 99 1009.4
20260510003350 11 114 0.0 0.0 0.00 1.73 1.73 99 1009.3
20260510002848 11 114 0.0 0.0 0.00 1.73 1.73 99 1009.3
20260510002346 11 99 0.0 3.2 0.00 1.73 1.73 99 1009.3
20260510001842 11 109 0.0 3.2 0.00 1.73 1.73 99 1009.4
20260510001340 11 102 3.2 4.8 0.00 1.73 1.73 99 1009.5
20260510000836 11 90 0.0 1.6 0.00 1.73 1.73 99 1009.1
20260510000334 11 120 0.0 4.8 0.00 1.73 1.73 99 1009.1
20260509235830 11 203 1.6 3.2 0.00 1.73 1.73 99 1009.0
20260509235327 11 71 1.6 6.4 0.00 1.73 1.73 99 1009.2
20260509234822 11 103 0.0 3.2 0.00 1.73 1.73 99 1008.8
20260509234319 10 99 0.0 3.2 0.00 1.73 1.73 99 1009.0
20260509233818 10 84 1.6 4.8 0.00 1.73 1.73 99 1009.1
20260509233315 10 90 3.2 3.2 0.00 1.73 1.73 99 1009.1
20260509232811 10 107 0.0 3.2 0.00 1.73 1.73 99 1009.4
20260509232309 10 99 0.0 1.6 0.00 1.73 1.73 99 1009.4
20260509231805 10 81 0.0 3.2 0.00 1.73 1.73 99 1009.5
20260509231302 10 106 1.6 3.2 0.00 1.73 1.73 99 1009.4
20260509230800 10 97 0.0 3.2 0.00 1.73 1.73 99 1009.6
20260509230257 10 206 0.0 1.6 0.00 1.73 1.73 99 1009.8
20260509225757 10 114 0.0 1.6 0.05 1.73 1.73 99 1010.0
20260509225253 10 98 0.0 1.6 0.05 1.73 1.73 99 1009.8
20260509224749 10 105 0.0 1.6 0.00 1.70 1.70 99 1009.5
20260509224247 10 90 1.6 3.2 0.05 1.70 1.70 99 1009.8
20260509223743 10 152 0.0 3.2 0.13 1.70 1.70 99 1009.7
20260509223240 10 138 4.8 6.4 0.13 1.70 1.70 99 1009.8
20260509222737 10 90 1.6 3.2 0.18 1.70 1.70 99 1009.8
20260509222232 10 70 3.2 4.8 0.05 1.68 1.68 99 1009.5
20260509221728 10 105 1.6 1.6 0.05 1.65 1.65 99 1009.8
20260509221225 10 103 3.2 3.2 0.13 1.65 1.65 99 1009.8
20260509220721 10 95 3.2 3.2 0.13 1.65 1.65 99 1009.8
20260509220218 10 173 0.0 4.8 0.05 1.65 1.65 99 1010.1
20260509215713 10 195 0.0 3.2 0.05 1.63 1.63 99 1010.0
20260509215210 10 209 3.2 3.2 0.13 1.63 1.63 99 1010.0
20260509214707 10 120 0.0 3.2 0.05 1.63 1.63 99 1010.0
20260509214204 10 151 0.0 3.2 0.05 1.60 1.60 99 1010.0
20260509213700 10 103 1.6 3.2 0.05 1.60 1.60 99 1010.0